Time,TemperatureF,DewpointF,PressureIn,WindDirection,WindDirectionDegrees,WindSpeedMPH,WindSpeedGustMPH,Humidity,HourlyPrecipIn,Conditions,Clouds,dailyrainin,SolarRadiationWatts/m^2,SoftwareType,DateUTC
2013-04-17 00:00:00,40.0,32.0,-100.00,ENE,67,2.0,-999.0,74,-99.99,,,-99.99,0.000000,,2013-04-17 04:00:00,
2013-04-17 00:42:00,40.0,32.0,-100.00,ENE,67,2.0,-999.0,74,-99.99,,,-99.99,0.000000,,2013-04-17 04:42:00,
2013-04-17 00:52:00,40.0,32.0,-100.00,ENE,67,2.0,-999.0,74,-99.99,,,-99.99,0.000000,,2013-04-17 04:52:00,
2013-04-17 01:00:00,40.0,33.0,-100.00,ESE,112,2.0,-999.0,75,-99.99,,,-99.99,0.000000,,2013-04-17 05:00:00,
2013-04-17 01:43:00,40.0,33.0,-100.00,ESE,112,2.0,-999.0,75,-99.99,,,-99.99,0.000000,,2013-04-17 05:43:00,
2013-04-17 01:52:00,40.0,33.0,-100.00,ESE,112,2.0,-999.0,75,-99.99,,,-99.99,0.000000,,2013-04-17 05:52:00,
2013-04-17 02:00:00,41.0,34.0,-100.00,ENE,67,0.0,-999.0,75,-99.99,,,-99.99,0.000000,,2013-04-17 06:00:00,
2013-04-17 02:42:00,41.0,34.0,-100.00,ENE,67,0.0,-999.0,75,-99.99,,,-99.99,0.000000,,2013-04-17 06:42:00,
2013-04-17 02:52:00,41.0,34.0,-100.00,ENE,67,0.0,-999.0,75,-99.99,,,-99.99,0.000000,,2013-04-17 06:52:00,
2013-04-17 03:00:00,41.0,34.0,-100.00,ENE,67,2.0,-999.0,75,-99.99,,,-99.99,0.000000,,2013-04-17 07:00:00,
2013-04-17 03:42:00,41.0,34.0,-100.00,ENE,67,2.0,-999.0,75,-99.99,,,-99.99,0.000000,,2013-04-17 07:42:00,
2013-04-17 03:52:00,41.0,34.0,-100.00,ENE,67,2.0,-999.0,75,-99.99,,,-99.99,0.000000,,2013-04-17 07:52:00,
2013-04-17 04:00:00,42.0,34.0,-100.00,NE,45,4.0,-999.0,72,-99.99,,,-99.99,0.000000,,2013-04-17 08:00:00,
2013-04-17 04:42:00,42.0,34.0,-100.00,NE,45,4.0,-999.0,72,-99.99,,,-99.99,0.000000,,2013-04-17 08:42:00,
2013-04-17 04:52:00,42.0,34.0,-100.00,NE,45,4.0,-999.0,72,-99.99,,,-99.99,0.000000,,2013-04-17 08:52:00,
2013-04-17 05:00:00,44.0,32.0,-100.00,ENE,67,5.0,-999.0,64,-99.99,,,-99.99,0.000000,,2013-04-17 09:00:00,
2013-04-17 05:42:00,44.0,32.0,-100.00,ENE,67,5.0,-999.0,64,-99.99,,,-99.99,0.000000,,2013-04-17 09:42:00,
2013-04-17 05:52:00,44.0,32.0,-100.00,ENE,67,5.0,-999.0,64,-99.99,,,-99.99,0.000000,,2013-04-17 09:52:00,
2013-04-17 06:00:00,44.0,31.0,-100.00,ENE,67,6.0,-999.0,60,-99.99,,,-99.99,0.000000,,2013-04-17 10:00:00,
2013-04-17 06:43:00,44.0,31.0,-100.00,ENE,67,6.0,-999.0,60,-99.99,,,-99.99,0.000000,,2013-04-17 10:43:00,
2013-04-17 06:53:00,44.0,31.0,-100.00,ENE,67,6.0,-999.0,60,-99.99,,,-99.99,0.000000,,2013-04-17 10:53:00,
2013-04-17 07:00:00,43.0,32.0,-100.00,East,90,6.0,-999.0,64,-99.99,,,-99.99,1.160000,,2013-04-17 11:00:00,
2013-04-17 07:42:00,43.0,32.0,-100.00,East,90,6.0,-999.0,64,-99.99,,,-99.99,1.160000,,2013-04-17 11:42:00,
2013-04-17 07:52:00,43.0,32.0,-100.00,East,90,6.0,-999.0,64,-99.99,,,-99.99,1.160000,,2013-04-17 11:52:00,
2013-04-17 08:00:00,43.0,33.0,-100.00,East,90,7.0,-999.0,69,-99.99,,,-99.99,49.880001,,2013-04-17 12:00:00,
2013-04-17 08:42:00,43.0,33.0,-100.00,East,90,7.0,-999.0,69,-99.99,,,-99.99,49.880001,,2013-04-17 12:42:00,
2013-04-17 08:52:00,43.0,33.0,-100.00,East,90,7.0,-999.0,69,-99.99,,,-99.99,49.880001,,2013-04-17 12:52:00,
2013-04-17 09:00:00,45.0,33.0,-100.00,East,90,8.0,-999.0,63,-99.99,,,-99.99,174.000000,,2013-04-17 13:00:00,
2013-04-17 09:42:00,45.0,33.0,-100.00,East,90,8.0,-999.0,63,-99.99,,,-99.99,174.000000,,2013-04-17 13:42:00,
2013-04-17 09:52:00,45.0,33.0,-100.00,East,90,8.0,-999.0,63,-99.99,,,-99.99,174.000000,,2013-04-17 13:52:00,
2013-04-17 10:00:00,47.0,33.0,-100.00,East,90,9.0,-999.0,56,-99.99,,,-99.99,321.320007,,2013-04-17 14:00:00,
2013-04-17 10:43:00,47.0,33.0,-100.00,East,90,9.0,-999.0,56,-99.99,,,-99.99,321.320007,,2013-04-17 14:43:00,
2013-04-17 10:52:00,47.0,33.0,-100.00,East,90,9.0,-999.0,56,-99.99,,,-99.99,321.320007,,2013-04-17 14:52:00,
2013-04-17 11:00:00,49.0,34.0,-100.00,ESE,112,9.0,-999.0,55,-99.99,,,-99.99,262.160004,,2013-04-17 15:00:00,
2013-04-17 11:43:00,49.0,34.0,-100.00,ESE,112,9.0,-999.0,55,-99.99,,,-99.99,262.160004,,2013-04-17 15:43:00,
2013-04-17 11:53:00,49.0,34.0,-100.00,ESE,112,9.0,-999.0,55,-99.99,,,-99.99,262.160004,,2013-04-17 15:53:00,
2013-04-17 12:00:00,51.0,36.0,-100.00,East,90,8.0,-999.0,54,-99.99,,,-99.99,283.040009,,2013-04-17 16:00:00,
2013-04-17 12:42:00,51.0,36.0,-100.00,East,90,8.0,-999.0,54,-99.99,,,-99.99,283.040009,,2013-04-17 16:42:00,
2013-04-17 12:52:00,51.0,36.0,-100.00,East,90,8.0,-999.0,54,-99.99,,,-99.99,283.040009,,2013-04-17 16:52:00,
2013-04-17 13:00:00,52.0,37.0,-100.00,East,90,10.0,-999.0,55,-99.99,,,-99.99,366.559998,,2013-04-17 17:00:00,
2013-04-17 13:42:00,52.0,37.0,-100.00,East,90,10.0,-999.0,55,-99.99,,,-99.99,366.559998,,2013-04-17 17:42:00,
2013-04-17 13:52:00,52.0,37.0,-100.00,East,90,10.0,-999.0,55,-99.99,,,-99.99,366.559998,,2013-04-17 17:52:00,
2013-04-17 14:00:00,53.0,38.0,-100.00,ESE,112,11.0,-999.0,57,-99.99,,,-99.99,215.759995,,2013-04-17 18:00:00,
2013-04-17 14:42:00,53.0,38.0,-100.00,ESE,112,11.0,-999.0,57,-99.99,,,-99.99,215.759995,,2013-04-17 18:42:00,
2013-04-17 14:52:00,53.0,38.0,-100.00,ESE,112,11.0,-999.0,57,-99.99,,,-99.99,215.759995,,2013-04-17 18:52:00,
2013-04-17 15:00:00,51.0,42.0,-100.00,East,90,7.0,-999.0,72,0.04,,,-99.99,77.720001,,2013-04-17 19:00:00,
2013-04-17 15:42:00,51.0,42.0,-100.00,East,90,7.0,-999.0,72,0.04,,,-99.99,77.720001,,2013-04-17 19:42:00,
2013-04-17 15:52:00,51.0,42.0,-100.00,East,90,7.0,-999.0,72,0.04,,,-99.99,77.720001,,2013-04-17 19:52:00,
2013-04-17 16:00:00,49.0,44.0,-100.00,ESE,112,6.0,-999.0,81,0.10,,,-99.99,24.360001,,2013-04-17 20:00:00,
2013-04-17 16:42:00,49.0,44.0,-100.00,ESE,112,6.0,-999.0,81,0.10,,,-99.99,24.360001,,2013-04-17 20:42:00,
2013-04-17 16:52:00,49.0,44.0,-100.00,ESE,112,6.0,-999.0,81,0.10,,,-99.99,24.360001,,2013-04-17 20:52:00,
2013-04-17 17:00:00,48.0,44.0,-100.00,ESE,112,8.0,-999.0,86,0.07,,,-99.99,38.279999,,2013-04-17 21:00:00,
2013-04-17 17:43:00,48.0,44.0,-100.00,ESE,112,8.0,-999.0,86,0.07,,,-99.99,38.279999,,2013-04-17 21:43:00,
2013-04-17 17:53:00,48.0,44.0,-100.00,ESE,112,8.0,-999.0,86,0.07,,,-99.99,38.279999,,2013-04-17 21:53:00,
2013-04-17 18:00:00,49.0,44.0,-100.00,ENE,67,5.0,-999.0,85,0.01,,,-99.99,11.600000,,2013-04-17 22:00:00,
2013-04-17 18:43:00,49.0,44.0,-100.00,ENE,67,5.0,-999.0,85,0.01,,,-99.99,11.600000,,2013-04-17 22:43:00,
2013-04-17 18:53:00,49.0,44.0,-100.00,ENE,67,5.0,-999.0,85,0.01,,,-99.99,11.600000,,2013-04-17 22:53:00,
2013-04-17 19:00:00,47.0,45.0,-100.00,ESE,112,6.0,-999.0,91,0.17,,,-99.99,2.320000,,2013-04-17 23:00:00,
2013-04-17 19:42:00,47.0,45.0,-100.00,ESE,112,6.0,-999.0,91,0.17,,,-99.99,2.320000,,2013-04-17 23:42:00,
2013-04-17 19:52:00,47.0,45.0,-100.00,ESE,112,6.0,-999.0,91,0.17,,,-99.99,2.320000,,2013-04-17 23:52:00,
2013-04-17 21:00:00,47.0,44.0,-100.00,ESE,112,11.0,-999.0,90,0.03,,,-99.99,0.000000,,2013-04-18 01:00:00,
2013-04-17 21:42:00,47.0,44.0,-100.00,ESE,112,11.0,-999.0,90,0.03,,,-99.99,0.000000,,2013-04-18 01:42:00,
2013-04-17 21:52:00,47.0,44.0,-100.00,ESE,112,11.0,-999.0,90,0.03,,,-99.99,0.000000,,2013-04-18 01:52:00,
2013-04-17 22:00:00,47.0,44.0,-100.00,ESE,112,11.0,-999.0,88,-99.99,,,-99.99,0.000000,,2013-04-18 02:00:00,
2013-04-17 23:00:00,46.0,42.0,-100.00,SE,135,12.0,-999.0,85,-99.99,,,-99.99,0.000000,,2013-04-18 03:00:00,
2013-04-17 23:43:00,46.0,42.0,-100.00,SE,135,12.0,-999.0,85,-99.99,,,-99.99,0.000000,,2013-04-18 03:43:00,
2013-04-17 23:53:00,46.0,42.0,-100.00,SE,135,12.0,-999.0,85,-99.99,,,-99.99,0.000000,,2013-04-18 03:53:00,